Weather in Gaz-Sale

Russia / Yamalo-Nenets Autonomous Okrug     67°21′50″N   79°00′14″E
temp.,
°C
wind,
m/s
gust,
m/s
humid.,
%
clouds,
%
prec.,
mm/h
press.,
hPa
HPBL,
m
17 august, wed
wed1723:00+7nw61092100 0.0 1007450
02:00+6nw71194100 0.3 1007458
05:00+6nw5897100 1.0 1007341
08:00+8nw3496100 0.0 1007217
11:00+11nnw249298 0.0 1008354
14:00+15nnw457369 0.0 1009784
17:00+17wnw456650 0.0 1010429
20:00+12wnw34855 0.0 101145
18 august, thu
thu1823:00+10nne46755 0.0 101370
02:00+9n47875 0.0 1015107
05:00+9n49865 0.0 1016187
08:00+15n710605 0.0 1017620
11:00+17n79485 0.0 10181116
14:00+17nnw89478 0.0 10181096
17:00+16nnw79545 0.0 10191275
20:00+10nw5977100 0.0 1019156
19 august, fri
fri1923:00+9nnw4979100 0.0 1019207
02:00+8nnw4784100 0.0 1019135
05:00+8nnw478396 0.0 1019200
08:00+11nnw3467100 0.0 1018469
11:00+12nw3368100 0.0 1018511
14:00+13wsw4472100 0.0 1017445
17:00+15wsw466387 0.0 1015660
20:00+13sw4873100 0.0 1014219
20 august, sat
sat2023:00+13sw5979100 0.0 1012223
02:00+13nw6993100 0.1 1012391
05:00+10nw71194100 0.5 1013360
08:00+9n71188100 0.0 1015639
11:00+9n81281100 0.0 1018789
14:00+14n810475 0.0 10191241
17:00+14n710455 0.0 10201268
20:00+9n510615 0.0 1021175
21 august, sun
sun2123:00+6n411745 0.0 1023188
02:00+4nnw48785 0.0 1023134
05:00+4nnw37790 0.0 1024169
08:00+9nnw576092 0.0 1024523
11:00+13nnw56455 0.0 1024910
14:00+15nnw56419 0.0 10241085
17:00+14nw2447100 0.0 1023479
20:00+10w2259100 0.0 102312